Station: Robe Airport  

  Atmospheric Gas Attenuation - ITU Rec 676-11   ----------------- dB/100km -----------------
Date Time Temp RH % AH g/m3 Dew Point Wind Direction Speed kph Gust kph Barometer mB Rainfall Since 9am 24GHz 47GHz 76GHz 122GHz 134GHz 241GHz
10/05 11:50 13.8 85 10.13 11.3 7 9 1031.3 0 22.8 29.2 47.0 123.4 120.9 417.0
10/05 11:40 13.6 86 10.12 11.3 7 9 1031.4 0 22.8 29.2 47.1 123.6 121.1 417.6
10/05 11:30 13.4 86 10 11.1 9 13 1031.4 0 22.6 29.1 46.7 122.6 119.7 412.8
10/05 11:20 13.6 86 10.12 11.4 9 13 1031.5 0 22.8 29.2 47.1 123.6 121.1 417.7
10/05 11:10 13.2 86 9.88 11 7 9 1031.6 0 22.3 28.9 46.3 121.5 118.3 408.0
10/05 11:00 13.5 88 10.29 11.6 7 11 1031.7 0 23.2 29.5 47.9 125.8 123.7 426.7
10/05 10:50 13.4 90 10.46 11.8 9 11 1031.7 0 23.6 29.9 48.7 127.9 126.3 435.8
10/05 10:40 13.1 91 10.38 11.6 9 9 1031.6 0 23.4 29.8 48.5 127.5 125.6 433.4
10/05 10:30 13.1 91 10.38 11.7 9 13 1031.5 0 23.4 29.8 48.5 127.5 125.6 433.4
10/05 10:20 12.6 92 10.18 11.3 7 7 1031.5 0 23.0 29.7 48.0 125.9 123.6 426.1
10/05 10:10 12.7 92 10.24 11.4 9 11 1031.4 0 23.1 29.7 48.2 126.5 124.2 428.5
10/05 10:00 12.4 93 10.16 11.3 11 15 1031.4 0 23.0 29.7 48.0 126.0 123.6 426.2
10/05 09:50 12.2 93 10.04 11.1 9 11 1031.4 0 22.7 29.5 47.6 124.9 122.2 421.2
10/05 09:40 12.3 94 10.21 11.3 9 11 1031.5 0 23.1 29.8 48.3 126.8 124.5 429.3
10/05 09:30 12.2 94 10.14 11.3 13 19 1031.5 0 22.9 29.7 48.0 126.1 123.6 426.3
10/05 09:20 12.4 95 10.38 11.6 11 17 1031.5 0 23.5 30.1 49.0 128.6 126.8 437.3
10/05 09:10 12.3 95 10.32 11.5 11 13 1031.5 0 23.3 30.0 48.8 128.1 126.1 434.8
10/05 09:00 12.3 95 10.32 11.5 11 13 1031.6 0 23.3 30.0 48.8 128.1 126.1 434.9
10/05 08:50 12.3 95 10.32 11.5 7 11 1031.6 0.2 23.3 30.0 48.8 128.1 126.1 434.9
10/05 08:40 12.2 95 10.25 11.4 11 13 1031.6 0.2 23.2 29.9 48.5 127.4 125.2 431.9
10/05 08:30 12 95 10.13 11.2 9 13 1031.6 0.2 22.9 29.8 48.1 126.3 123.8 426.9
10/05 08:20 12.2 95 10.25 11.5 6 7 1031.5 0.2 23.2 29.9 48.5 127.4 125.2 431.9
10/05 08:10 12 95 10.13 11.2 11 13 1031.4 0.2 22.9 29.8 48.1 126.3 123.8 426.9
10/05 08:00 11.8 95 10 11 9 13 1031.3 0.2 22.7 29.6 47.6 125.1 122.2 421.4
10/05 07:50 11.7 95 9.94 10.9 7 9 1031.3 0.2 22.5 29.5 47.4 124.6 121.5 418.9
10/05 07:40 11.5 95 9.81 10.7 7 7 1031.1 0.2 22.3 29.4 47.0 123.3 119.9 413.3
10/05 07:30 11.4 95 9.75 10.6 7 11 1031 0.2 22.2 29.3 46.8 122.8 119.2 410.8
10/05 07:20 11.5 95 9.81 10.7 7 7 1030.8 0.2 22.3 29.3 47.0 123.3 119.9 413.2
10/05 07:10 11.4 95 9.75 10.6 6 7 1030.6 0.2 22.2 29.3 46.8 122.7 119.2 410.7
10/05 07:00 11.3 94 9.59 10.4 7 11 1030.5 0.2 21.8 29.0 46.1 121.0 117.0 403.1
10/05 06:50 11.3 94 9.59 10.3 9 11 1030.5 0.2 21.8 29.0 46.1 121.0 117.0 403.1
10/05 06:40 11.4 94 9.65 10.4 7 7 1030.5 0.2 21.9 29.1 46.3 121.6 117.7 405.6
10/05 06:30 11.4 94 9.65 10.5 7 11 1030.5 0.2 21.9 29.1 46.3 121.6 117.7 405.6
10/05 06:20 11.2 94 9.53 10.2 9 11 1030.4 0.2 21.7 28.9 45.9 120.5 116.3 400.6
10/05 06:10 11.3 93 9.49 10.2 11 13 1030.4 0.2 21.6 28.8 45.7 119.8 115.6 398.1
10/05 06:00 11.6 94 9.77 10.7 9 13 1030.3 0.2 22.2 29.2 46.7 122.6 119.1 410.5
10/05 05:50 11.8 93 9.79 10.7 6 7 1030.2 0.2 22.2 29.2 46.7 122.5 119.1 410.4
10/05 05:40 11.8 93 9.79 10.7 6 7 1030.1 0.2 22.2 29.2 46.7 122.5 119.1 410.4
10/05 05:30 11.7 93 9.73 10.6 6 9 1030 0.2 22.1 29.1 46.5 122.0 118.4 407.9
10/05 05:20 11.7 93 9.73 10.6 6 7 1029.9 0.2 22.1 29.1 46.5 121.9 118.4 407.9
10/05 05:10 11.8 93 9.79 10.7 11 13 1029.8 0.2 22.2 29.2 46.7 122.5 119.1 410.3
10/05 05:00 11.8 93 9.79 10.7 7 11 1029.8 0.2 22.2 29.2 46.7 122.5 119.1 410.3
10/05 04:50 11.9 92 9.74 10.6 9 11 1029.7 0.2 22.1 29.0 46.4 121.7 118.2 407.3
10/05 04:40 11.9 92 9.74 10.6 9 11 1029.6 0.2 22.1 29.0 46.4 121.7 118.2 407.2
10/05 04:30 11.9 92 9.74 10.6 4 6 1029.5 0.2 22.1 29.0 46.4 121.7 118.2 407.2
10/05 04:20 11.9 92 9.74 10.6 4 6 1029.5 0.2 22.1 29.0 46.4 121.7 118.2 407.2
10/05 04:10 12 90 9.59 10.5 9 9 1029.4 0.2 21.8 28.7 45.6 119.8 115.9 399.2
10/05 04:00 12 91 9.7 10.6 7 13 1029.3 0.2 22.0 28.9 46.1 121.1 117.4 404.6
10/05 03:50 11.9 90 9.53 10.4 7 9 1029.3 0.2 21.7 28.7 45.4 119.3 115.2 396.7
10/05 03:40 12 90 9.59 10.5 4 6 1029.3 0.2 21.8 28.7 45.6 119.8 115.9 399.1
10/05 03:30 12.1 91 9.76 10.7 7 9 1029.3 0.2 22.1 29.0 46.3 121.6 118.1 407.1
10/05 03:20 12 90 9.59 10.5 7 9 1029.3 0.2 21.8 28.7 45.6 119.8 115.9 399.1
10/05 03:10 11.9 90 9.53 10.4 7 9 1029.3 0.2 21.7 28.7 45.4 119.3 115.2 396.7
10/05 03:00 11.9 91 9.64 10.5 11 17 1029.4 0.2 21.9 28.9 45.9 120.5 116.7 402.2
10/05 02:50 11.9 90 9.53 10.4 9 11 1029.5 0.2 21.7 28.7 45.5 119.3 115.2 396.7
10/05 02:40 12 92 9.81 10.7 9 11 1029.6 0.2 22.3 29.1 46.6 122.4 119.0 410.2
10/05 02:30 11.9 92 9.74 10.6 13 17 1029.5 0.2 22.1 29.0 46.4 121.7 118.2 407.2
10/05 02:20 11.8 93 9.79 10.7 13 17 1029.6 0.2 22.2 29.2 46.6 122.5 119.0 410.3
10/05 02:10 11.9 94 9.96 10.9 7 9 1029.6 0.2 22.6 29.4 47.3 124.3 121.3 418.2
10/05 02:00 11.9 94 9.96 11 9 13 1029.7 0.2 22.6 29.4 47.3 124.3 121.3 418.3
10/05 01:50 12 93 9.91 10.9 9 9 1029.8 0.2 22.5 29.3 47.1 123.6 120.5 415.3
10/05 01:40 12.1 93 9.97 11 7 7 1029.7 0.2 22.6 29.4 47.3 124.1 121.2 417.7
10/05 01:30 12.1 93 9.97 11 7 11 1029.7 0.2 22.6 29.4 47.3 124.1 121.2 417.7
10/05 01:20 12 93 9.91 10.9 6 6 1029.6 0.2 22.5 29.3 47.0 123.5 120.5 415.2
10/05 01:10 12 93 9.91 10.9 6 6 1029.6 0.2 22.5 29.3 47.0 123.5 120.5 415.2
10/05 01:00 12 93 9.91 10.9 6 7 1029.6 0.2 22.5 29.3 47.0 123.5 120.5 415.2
10/05 00:50 11.9 93 9.85 10.8 6 7 1029.6 0.2 22.3 29.2 46.8 123.0 119.7 412.7
10/05 00:40 11.8 93 9.79 10.7 4 4 1029.6 0.2 22.2 29.2 46.6 122.5 119.0 410.3
10/05 00:30 11.7 93 9.73 10.6 4 6 1029.6 0.2 22.1 29.1 46.4 121.9 118.3 407.8
10/05 00:20 11.6 93 9.67 10.5 2 4 1029.6 0.2 22.0 29.0 46.2 121.4 117.6 405.3
10/05 00:10 11.6 93 9.67 10.5 6 6 1029.5 0.2 22.0 29.0 46.2 121.4 117.6 405.3
10/05 00:00 11.5 93 9.61 10.4 4 6 1029.5 0.2 21.9 28.9 46.0 120.8 116.9 402.8
09/05 23:50 11.3 93 9.49 10.2 6 6 1029.4 0.2 21.6 28.8 45.6 119.7 115.5 397.8
09/05 23:40 11.2 93 9.43 10.1 4 6 1029.4 0.2 21.5 28.7 45.4 119.2 114.8 395.3
09/05 23:30 11.1 92 9.27 9.9 7 9 1029.3 0.2 21.1 28.5 44.8 117.5 112.7 387.8
09/05 23:20 10.7 92 9.04 9.4 6 7 1029.4 0.2 20.7 28.2 44.0 115.4 110.0 378.4
09/05 23:10 10.7 91 8.94 9.3 6 6 1029.4 0 20.5 28.0 43.6 114.3 108.6 373.5
09/05 23:00 11.2 91 9.23 9.8 6 7 1029.4 0 21.1 28.4 44.6 116.9 112.0 385.4
09/05 22:50 11.4 90 9.24 9.8 7 7 1029.4 0 21.1 28.3 44.5 116.7 111.8 384.9
09/05 22:40 11.8 90 9.47 10.2 6 7 1029.5 0 21.5 28.6 45.3 118.7 114.5 394.3
09/05 22:30 12.4 90 9.83 10.8 7 9 1029.5 0 22.3 29.0 46.5 122.0 118.7 409.0
09/05 22:20 12.9 91 10.26 11.4 7 9 1029.6 0 23.2 29.6 48.0 126.2 124.0 427.8
09/05 22:10 13 91 10.32 11.5 7 9 1029.7 0 23.3 29.7 48.2 126.7 124.7 430.3
09/05 22:00 13 92 10.43 11.7 7 9 1029.8 0 23.5 29.9 48.7 128.0 126.3 435.9
09/05 21:50 13 92 10.43 11.7 7 11 1029.8 0 23.5 29.9 48.7 128.0 126.3 435.9
09/05 21:40 13 93 10.55 11.9 9 9 1029.7 0 23.8 30.1 49.2 129.4 128.1 441.9
09/05 21:30 12.9 93 10.48 11.8 6 9 1029.7 0 23.6 30.0 49.0 128.7 127.2 438.9
09/05 21:20 12.9 93 10.48 11.8 7 9 1029.7 0 23.6 30.0 49.0 128.7 127.2 438.9
09/05 21:10 12.9 94 10.6 11.9 9 13 1029.8 0 23.9 30.2 49.5 130.2 129.0 445.0
09/05 21:00 13 94 10.66 12.1 9 19 1029.8 0 24.0 30.3 49.7 130.7 129.7 447.5
09/05 20:50 12.9 94 10.6 11.9 6 6 1029.9 0 23.9 30.2 49.5 130.2 129.0 445.1
09/05 20:40 12.8 94 10.53 11.8 7 11 1029.9 0 23.8 30.1 49.3 129.5 128.1 442.1
09/05 20:30 13.1 94 10.73 12.2 9 20 1029.9 0 24.2 30.4 50.0 131.4 130.5 450.5
09/05 20:20 13.3 94 10.86 12.3 6 7 1029.8 0 24.4 30.5 50.4 132.6 132.0 455.9
09/05 20:10 13.3 94 10.86 12.3 9 11 1029.8 0 24.4 30.5 50.4 132.6 132.0 455.9
09/05 20:00 13.3 93 10.75 12.2 9 15 1029.8 0 24.2 30.3 49.9 131.3 130.5 450.3
09/05 19:50 13.4 93 10.81 12.3 9 13 1029.9 0 24.3 30.4 50.1 131.8 131.2 452.8
09/05 19:40 13.4 93 10.81 12.3 11 11 1029.9 0 24.3 30.4 50.1 131.8 131.2 452.8
09/05 19:30 13.4 93 10.81 12.3 7 9 1029.8 0 24.3 30.4 50.1 131.8 131.1 452.8
09/05 19:20 13.4 92 10.7 12.1 6 6 1029.9 0 24.1 30.2 49.7 130.5 129.6 447.2

Last Refresh: 10-May-2026 11:57:32

Bureau of Meteorology